Home   Weather   Austria   Lustenau   Past weeks
Flag for Austria

Past Weather in Lustenau, Vorarlberg, Austria — Yesterday and Last 2 Weeks

Currently: 41 °F. Overcast. (Weather station: Saint Gallen-Altenrhein, Austria). See more current weather

Past Weather in Lustenau — Graph

°F

Lustenau Temperature Yesterday

Maximum temperature yesterday: 48 °F (at 2:20 pm)
Minimum temperature yesterday: 28 °F (at 6:20 am)
Average temperature yesterday: 41 °F

High & Low Weather Summary for the Past Weeks

 TemperatureHumidityPressure
High68 °F (Apr 11, 4:50 pm)100% (Apr 5, 2:50 am)30.39 "Hg (Apr 5, 2:50 am)
Low25 °F (Apr 6, 7:50 am)28% (Apr 11, 4:50 pm)29.71 "Hg (Apr 5, 4:20 pm)
Average42 °F70%30.12 "Hg
* Reported Apr 3 10:20 am — Apr 18 10:20 am, Lustenau. Weather by CustomWeather, © 2021

Note: Actual official high and low records may vary slightly from our data, if they occured in-between our weather recording intervals... More about our weather records

Lustenau Weather History for the Previous 24 Hours

Scroll right to see more
 ConditionsComfort  
Time TempWeatherWind HumidityBarometerVisibility
10:20 am
Sun, Apr 18
41 °FOvercast.6 mph87%30.09 "HgN/A
9:50 am41 °FOvercast.6 mph87%30.09 "HgN/A
9:20 am41 °FOvercast.5 mph93%30.09 "HgN/A
8:50 am41 °FMostly cloudy.5 mph87%30.09 "HgN/A
8:20 am41 °FOvercast.5 mph87%30.09 "HgN/A
7:50 am41 °FPartly sunny.6 mph87%30.09 "HgN/A
7:20 am41 °FMostly cloudy.5 mph87%30.07 "HgN/A
6:50 am41 °FOvercast.2 mph87%30.07 "HgN/A
6:20 am41 °FOvercast.1 mph87%30.07 "HgN/A
5:50 am39 °FOvercast.1 mph93%30.07 "HgN/A
4:50 am41 °FPassing clouds.5 mph87%30.07 "HgN/A
4:20 am41 °FPassing clouds.3 mph87%30.07 "HgN/A
3:50 am41 °FPartly cloudy.3 mph87%30.07 "HgN/A
3:20 am41 °FOvercast.3 mph87%30.07 "HgN/A
2:50 am43 °FPassing clouds.3 mph76%30.09 "HgN/A
2:20 am43 °FOvercast.3 mph76%30.09 "HgN/A
1:50 am43 °FOvercast.2 mph76%30.09 "HgN/A
1:20 am43 °FOvercast.1 mph76%30.09 "HgN/A
12:50 am43 °FOvercast.2 mph71%30.09 "HgN/A
12:20 am45 °FOvercast.5 mph66%30.09 "HgN/A
11:50 pm
Sat, Apr 17
45 °FPassing clouds.6 mph61%30.09 "HgN/A
11:20 pm45 °FOvercast.6 mph61%30.09 "HgN/A
10:50 pm45 °FOvercast.5 mph66%30.09 "HgN/A
10:20 pm45 °FOvercast.5 mph66%30.09 "HgN/A
9:50 pm46 °FPassing clouds.5 mph62%30.09 "HgN/A
9:20 pm46 °FMostly cloudy.6 mph57%30.09 "HgN/A
8:50 pm46 °FOvercast.6 mph62%30.09 "HgN/A
8:20 pm46 °FOvercast.5 mph57%30.09 "HgN/A
7:50 pm46 °FPartly sunny.6 mph57%30.09 "HgN/A
7:20 pm46 °FPartly sunny.6 mph57%30.07 "HgN/A
6:50 pm46 °FPartly sunny.3 mph57%30.07 "HgN/A
6:20 pm46 °FPartly sunny.6 mph57%30.07 "HgN/A
5:50 pm46 °FPartly sunny.6 mph57%30.07 "HgN/A
5:20 pm46 °FPartly sunny.9 mph57%30.07 "HgN/A
4:50 pm46 °FPartly sunny.9 mph57%30.07 "HgN/A
4:20 pm46 °FPartly sunny.8 mph57%30.07 "HgN/A
3:50 pm46 °FPartly sunny.7 mph57%30.09 "HgN/A
3:20 pm46 °FPartly sunny.8 mph57%30.09 "HgN/A
2:50 pm48 °FPartly sunny.7 mph58%30.09 "HgN/A
2:20 pm48 °FPartly sunny.8 mph58%30.09 "HgN/A
1:50 pm46 °FPartly sunny.9 mph66%30.09 "HgN/A
1:20 pm46 °FPartly sunny.10 mph66%30.09 "HgN/A
12:50 pm45 °FPassing clouds.8 mph71%30.12 "HgN/A
12:20 pm45 °FPassing clouds.8 mph71%30.12 "HgN/A
11:50 am45 °FPassing clouds.8 mph71%30.12 "HgN/A
11:20 am45 °FPassing clouds.3 mph71%30.12 "HgN/A
Weather by CustomWeather, © 2021

See weather overview